St. Thomas, VI

12:01 PM AST on October 17, 2017 (GMT -0400)
King

Weather History for TIST - April, 2013

Change the Weather History Date:

Thursday, April 4, 2013

  Actual Average Record
Temperature  
Mean Temperature 80 °F 80 °F  
Max Temperature 85 °F 87 °F 96 °F (1996)
Min Temperature 75 °F 74 °F 67 °F (1976)
Degree Days  
Heating Degree Days 0 0  
Month to date heating degree days 0 0  
Since 1 July heating degree days 0 0  
Cooling Degree Days 15 15  
Month to date cooling degree days 61 60  
Year to date cooling degree days 1283 1319  
Growing Degree Days 30 (Base 50)    
Moisture  
Dew Point 70 °F    
Average Humidity 72    
Maximum Humidity 82    
Minimum Humidity 61    
Precipitation  
Precipitation 0.00 in 0.07 in 0.68 in (1956)
Month to date precipitation 0.08 0.26  
Year to date precipitation 2.32 5.49  
Sea Level Pressure  
Sea Level Pressure 30.05 in    
Wind  
Wind Speed 11 mph (ESE)    
Max Wind Speed 18 mph    
Max Gust Speed 25 mph    
Visibility 10 miles    
Events      
T = Trace of Precipitation, MM = Missing Value Source: NWS Daily Summary

Daily Weather History Graph

Daily Weather History Graph

Search for Another Location

Airport or City:

Trip Planner

Search our weather history database for the weather conditions in past years. The results will help you decide how hot, cold, wet, or windy it might be!

Date:

Astronomy

Apr. 04, 2013 Rise Set
Actual Time 6:11 AM AST 6:34 PM AST
Civil Twilight 5:49 AM AST 6:56 PM AST
Nautical Twilight 5:23 AM AST 7:21 PM AST
Astronomical Twilight 4:58 AM AST 7:47 PM AST
Moon 1:48 AM AST (4/4) 1:32 PM AST (4/4)
Length of Visible Light 13h 06m
Length of Day
12h 22m
Waning Crescent, 34% of the Moon is Illuminated
Apr 4
Waning Crescent
Apr 10
New
Apr 18
First Quarter
Apr 25
Full
May 2
Last Quarter

Hourly Weather History & Observations

Time (AST) Temp. Heat Index Dew Point Humidity Pressure Visibility Wind Dir Wind Speed Gust Speed Precip Events Conditions
12:53 AM 79.0 °F - 72.0 °F 79% 30.04 in 10.0 mi ESE 10.4 mph - N/A   Overcast
1:53 AM 77.0 °F - 71.1 °F 82% 30.03 in 10.0 mi ESE 6.9 mph - N/A   Overcast
2:53 AM 77.0 °F - 71.1 °F 82% 30.02 in 10.0 mi East 6.9 mph - N/A   Overcast
3:53 AM 77.0 °F - 71.1 °F 82% 30.02 in 10.0 mi East 8.1 mph - N/A   Overcast
4:53 AM 77.0 °F - 71.1 °F 82% 30.03 in 10.0 mi ESE 10.4 mph - N/A   Overcast
5:53 AM 75.0 °F - 70.0 °F 84% 30.04 in 10.0 mi East 9.2 mph - N/A   Overcast
6:53 AM 77.0 °F - 70.0 °F 79% 30.06 in 10.0 mi East 6.9 mph - N/A   Overcast
8:53 AM 81.0 °F 84.4 °F 70.0 °F 69% 30.09 in 10.0 mi East 10.4 mph - N/A   Overcast
9:25 AM 82.4 °F 86.3 °F 69.8 °F 66% 30.10 in 10.0 mi ESE 10.4 mph - N/A   Overcast
9:53 AM 81.0 °F 84.4 °F 70.0 °F 69% 30.10 in 10.0 mi ESE 10.4 mph - N/A   Overcast
10:24 AM 80.6 °F 83.9 °F 69.8 °F 70% 30.10 in 10.0 mi East 10.4 mph - N/A   Overcast
10:53 AM 81.0 °F 84.4 °F 70.0 °F 69% 30.10 in 10.0 mi SE 12.7 mph 21.9 mph N/A   Overcast
11:53 AM 82.9 °F 87.0 °F 70.0 °F 65% 30.09 in 10.0 mi SE 12.7 mph - N/A   Overcast
12:26 PM 82.4 °F 86.3 °F 69.8 °F 66% 30.08 in 10.0 mi SSE 16.1 mph - N/A   Overcast
12:53 PM 84.0 °F 89.0 °F 71.1 °F 65% 30.07 in 10.0 mi SE 11.5 mph 18.4 mph N/A   Overcast
1:53 PM 82.0 °F 86.3 °F 71.1 °F 69% 30.05 in 10.0 mi SE 13.8 mph - N/A   Overcast
2:53 PM 84.0 °F 87.8 °F 69.1 °F 61% 30.02 in 10.0 mi East 16.1 mph 21.9 mph N/A   Overcast
3:31 PM 84.2 °F 87.3 °F 68.0 °F 58% 30.02 in 10.0 mi East 16.1 mph 23.0 mph N/A   Overcast
3:53 PM 84.0 °F 87.8 °F 69.1 °F 61% 30.02 in 10.0 mi ENE 13.8 mph 21.9 mph N/A   Overcast
4:53 PM 82.9 °F 85.8 °F 68.0 °F 60% 30.01 in 10.0 mi East 11.5 mph - N/A   Overcast
5:53 PM 81.0 °F 83.0 °F 66.0 °F 60% 30.02 in 10.0 mi East 16.1 mph - N/A   Overcast
6:53 PM 79.0 °F - 68.0 °F 69% 30.03 in 10.0 mi East 17.3 mph - N/A   Overcast
7:53 PM 78.1 °F - 68.0 °F 71% 30.04 in 10.0 mi East 15.0 mph 20.7 mph N/A   Overcast
8:53 PM 78.1 °F - 68.0 °F 71% 30.06 in 10.0 mi East 10.4 mph - N/A   Overcast
10:53 PM 77.0 °F - 70.0 °F 79% 30.06 in 10.0 mi East 10.4 mph - N/A   Overcast
11:28 PM 78.8 °F - 69.8 °F 74% 30.06 in 10.0 mi ESE 10.4 mph - N/A   Overcast